AirNav   ATP
 
 1487 users online  

N72 Warwick Municipal Airport
Warwick, New York, USA

GOING TO WARWICK?


FAA INFORMATION EFFECTIVE 19 JULY 2018

Location

FAA Identifier: N72
Lat/Long: 41-17-15.3370N / 074-17-13.5410W
41-17.255617N / 074-17.225683W
41.2875936 / -74.2870947
(estimated)
Elevation: 540 ft. / 164.6 m (surveyed)
Variation: 13W (1985)
From city: 3 miles NE of WARWICK, NY
Time zone: UTC -4 (UTC -5 during Standard Time)
Zip code: 10990

Airport Operations

Airport use: Open to the public
Activation date: 01/1940
Control tower: no
ARTCC: NEW YORK CENTER
FSS: NEW YORK FLIGHT SERVICE STATION
NOTAMs facility: ISP (NOTAM-D service available)
Attendance: IREG
Pattern altitude: 1500 ft. MSL
Wind indicator: yes
Segmented circle: no
Lights: ACTVT LIRL RY 03R/21L - CTAF.

Airport Communications

CTAF/UNICOM: 123.0
WX ASOS at MGJ (13 nm N): 119.275 (845-457-1486)
WX ASOS at FWN (16 nm W): 118.525 (973-875-0859)

Nearby radio navigation aids

VOR radial/distance  VOR name  Freq  Var
HUOr129/15.5HUGUENOT VOR/DME116.1011W
SAXr052/17.4SPARTA VORTAC115.7011W
TEBr350/28.2TETERBORO VOR/DME108.4011W
IGNr235/30.8KINGSTON VOR/DME117.6012W
STWr067/31.6STILLWATER VOR/DME109.6011W
CMKr283/31.8CARMEL VOR/DME116.6012W
LGAr340/35.7LA GUARDIA VOR/DME113.1012W
BWZr051/38.0BROADWAY VOR/DME114.2011W

 
NDB name  Hdg/Dist  Freq  Var  ID
NEELY207/12.233514WSW ... .--
STANWYCK229/18.126112WSKU ... -.- ..-
CHATHAM024/33.425413WCAT -.-. .- -

Airport Services

Fuel available: 100LL
SELF SVC FUEL AVBL.
Parking: tiedowns
Airframe service: NONE
Powerplant service: NONE
Bottled oxygen: NONE
Bulk oxygen: NONE

Runway Information

Runway 3R/21L

Dimensions: 2150 x 28 ft. / 655 x 9 m
Surface: asphalt, in good condition
Runway edge lights: non-standard
RY 03R/21L NSTD LIRL HAS SPACING 400 FT APART.
RUNWAY 3R  RUNWAY 21L
Gradient: 0.2%0.2%
Traffic pattern: leftleft
Markings: numbers only, in good conditionnumbers only, in good condition
Runway end identifier lights: nono
Obstructions: 80 ft. tree, 1238 ft. from runway, 65 ft. right of centerline, 13:1 slope to clear47 ft. trees, 839 ft. from runway, 13:1 slope to clear
RWY 21L 34 FT TREES 14 FT FM THLD 61 FT LT.

Runway 8/26

Dimensions: 2250 x 80 ft. / 686 x 24 m
Surface: turf, in good condition
RUNWAY 8  RUNWAY 26
Gradient: 0.3%0.3%
Traffic pattern: leftleft
Runway end identifier lights: nono
Obstructions: 35 ft. tree, 2 ft. from runway, 66 ft. left of centerline28 ft. trees, 189 ft. from runway, 114 ft. left of centerline, 6:1 slope to clear

Runway 3L/21R

Dimensions: 2100 x 50 ft. / 640 x 15 m
Surface: turf, in good condition
RUNWAY 3L  RUNWAY 21R
Traffic pattern: leftleft
Obstructions: 68 ft. trees, 117 ft. left of centerline56 ft. trees, 38 ft. from runway, 54 ft. right of centerline

Airport Ownership and Management from official FAA records

Ownership: Publicly-owned
Owner: TOWN OF WARWICK
BOX 489
WARWICK, NY 10990
Phone 845-986-9544
Manager: DAVID MAC MILLAN
41 AIRPORT RD
WARWICK, NY 10990
Phone 845-987-1320

Airport Operational Statistics

Aircraft based on the field: 46
Single engine airplanes: 46
    
Aircraft operations: avg 86/week *
83% local general aviation
17% transient general aviation
* for 12-month period ending 21 August 2017

Additional Remarks

ARPT CLSD TO TSNT ACFT SS-SR.
NO PRACTICE LNDGS.
MOUNTAINS & TWRS IN CLOSE VICINITY OF ARPT.
RY 08 HAS 6 FT CHAIN LINK FENCE, 58 FT LEFT, PARALLEL TO RY.
FOR CD CTC NEW YORK APCH AT 516-683-2967.
DEER AND BIRD ACTIVITY NEAR MOVEMENT AREAS.
FOR CD CTC NEW YORK APCH AT 516-683-2967.
DEER AND BIRD ACTIVITY NEAR MOVEMENT AREAS.
SEAPLANE USE OF WICKHAM LAKE PROHIBITED.

Instrument Procedures

There are no published instrument procedures at N72.

Some nearby airports with instrument procedures:

06N - Randall Airport (10 nm NW)
4N1 - Greenwood Lake Airport (10 nm S)
KMGJ - Orange County Airport (13 nm N)
KSWF - Stewart International Airport (15 nm NE)
KFWN - Sussex Airport (16 nm W)
 
Loc | Ops | Rwys | IFR | FBO | Links
Com | Nav | Svcs | Stats | Notes


 
Area around N72 (Warwick Municipal Airport)
 
Road maps at: MapQuest Bing Google
 
Aerial photo
WARNING: Photo may not be current or correct
Aerial photo of N72 (Warwick Municipal Airport)
Photo taken 17-Aug-2011
looking southwest.

Do you have a better or more recent aerial photo of Warwick Municipal Airport that you would like to share? If so, please send us your photo.

 
Sectional chart

 
Airport distance calculator
Flying to Warwick Municipal Airport? Find the distance to fly.

From to N72

Sunrise and sunset
Times for 15-Aug-2018
 Local
(UTC-4)
 Zulu
(UTC)
Morning civil twilight05:3809:38
Sunrise06:0710:07
Sunset19:5623:56
Evening civil twilight20:2600:26

Current date and time
Zulu (UTC)  15-Aug-2018 14:28:26
Local (UTC-4)  15-Aug-2018 10:28:26
 
METAR
KMGJ 
14nm N 
SuperAWOS
151354Z AUTO VRB03KT 10SM CLR 26/19 A2991 RMK AO2 SLP125 T02610194
KSWF 
16nm NE 
151345Z 26006KT 20SM SKC 24/22 A2992
KFWN 
16nm W 
151353Z AUTO 27005KT 10SM CLR 25/20 A2993 RMK AO2 SLP132 T02500200
KCDW 
24nm S 
151353Z VRB03KT 10SM CLR 26/19 A2992 RMK AO2 SLP135 T02560194
K12N 
26nm SW 
151354Z AUTO VRB03KT 25/21 A2994 RMK AO1 SLP132 T02500211
KTEB 
27nm SE 
151351Z 29008KT 10SM CLR 27/19 A2990 RMK AO2 SLP123 T02670194
TAF
KSWF 
16nm NE 
151120Z 1512/1618 27004KT P6SM FEW050 SCT250 FM151500 29008KT P6SM FEW050 AMD NOT SKED
NOTAMs
Click for the latest NOTAMs
NOTAMs are issued by the DoD/FAA and will open in a separate window not controlled by AirNav.

 

 
 

FBO, Fuel Providers, and Aircraft Ground Support

  
 Business Name 
 
 Contact 
 
 Services / Description 
 
Fuel Prices
 
Comments
  
Warwick Municipal Airport 845-986-9544
no information available

If you are affiliated with Warwick Municipal Airport and would like to show here your services, contact info, web link, logo, and more, click here
100LL
SS $5.35 
 Updated 08-Jun-2018
 
   write
SS=Self service
Update Fuel Prices
 

Would you like to see your business listed on this page?

 If your business provides an interesting product or service to pilots, flight crews, aircraft, or users of the Warwick Municipal Airport, you should consider listing it here.  To start the listing process, click on the button below
 
Add a business
 

Other Pages about Warwick Municipal Airport

www.warwickairport.com
 
Update a link
 
Copyright © AirNav, LLC. All rights reserved. Privacy Policy  Contact